Regional Weather Roundup
Issued by NWS

Home | Current Version | Previous Version | Text Only | Print | Product List | Glossary Off
Versions: 1 2 3 4 5 6 7 8 9 10 11 12 13 14 15 16 17 18 19 20 21 22 23 24 25 26 27 28

000
ASUS45 KBOI 140910
RWRID

IDAHO REGIONAL WEATHER ROUNDUP
NATIONAL WEATHER SERVICE BOISE ID
200 AM MST THU DEC 14 2017

NOTE: "FAIR" INDICATES FEW OR NO CLOUDS BELOW 12000 FEET
WITH NO SIGNIFICANT WEATHER AND/OR OBSTRUCTIONS TO VISIBILITY

IDZ012-014-141000-
SOUTHWEST IDAHO


CITY           SKY/WX    TMP DP  RH WIND       PRES   REMARKS
BOISE          CLOUDY    25  22  88 SE8       30.49R WCI  16
CALDWELL       NOT AVBL
MOUNTAIN HOME  CLOUDY    24  24 100 E9        30.49R FOG     WCI  15
$$

IDZ016-017-141000-
SOUTHCENTRAL IDAHO


CITY           SKY/WX    TMP DP  RH WIND       PRES   REMARKS
BURLEY         CLOUDY    23  20  88 CALM      30.43S
JEROME         CLOUDY    24  19  81 N8        30.45R HAZE    WCI  15
TWIN FALLS     CLOUDY    23  21  92 NE7       30.44R FOG     WCI  15
$$

IDZ019>023-141000-
SOUTHEAST IDAHO


CITY           SKY/WX    TMP DP  RH WIND       PRES   REMARKS
IDAHO FALLS    FOG       20  20 100 SW6       30.42R VSB 1/4 WCI  12
POCATELLO      CLOUDY    21  20  96 SW12      30.43R FOG     WCI   9
REXBURG        FOG       20  19  96 CALM      30.40R VSB 1/4
$$

IDZ006-010-011-018-031-032-141000-
CENTRAL IDAHO MOUNTAINS


CITY           SKY/WX    TMP DP  RH WIND       PRES   REMARKS
MCCALL         FOG       15  12  88 CALM      30.38R VSB 1/4
HAILEY         CLEAR     19  19 100 NW7       30.40R WCI  10
STANLEY          N/A     13  10  88 CALM      30.40R
SALMON         CLOUDY    20  18  92 CALM      30.50R
CHALLIS        FOG       18  15  88 CALM      30.44R VSB 1/4
$$

IDZ002-004-006-007-026-141000-
NORTHERN IDAHO


CITY           SKY/WX    TMP DP  RH WIND       PRES   REMARKS
LEWISTON       CLOUDY    31  28  89 CALM      30.57S
LOWELL           N/A     32  30  92 CALM      30.58S
COEUR D`ALENE  CLOUDY    29  27  92 N9        30.53S WCI  20
MULLAN PASS    PTCLDY    25  22  88 SE5       30.37F WCI  19
$$




USA.gov is the U.S. government's official web portal to all federal, state and local government web resources and services.